Weather History for K2WX - January, 2014

Change the Weather History Date:

Wednesday, January 29, 2014

  Actual Average Record
Temperature  
Mean Temperature 29 °F 21 °F  
Max Temperature 44 °F 31 °F 51 °F (2012)
Min Temperature 13 °F 11 °F -18 °F (2004)
Degree Days  
Heating Degree Days 36 44  
Month to date heating degree days 1211 1293  
Since 1 July heating degree days 4547 4553  
Cooling Degree Days 0 0  
Month to date cooling degree days 0 0  
Year to date cooling degree days 0 0  
Moisture  
Dew Point 18 °F    
Average Humidity 68    
Maximum Humidity 96    
Minimum Humidity 39    
Precipitation  
Precipitation 0.17 in 0.01 in 0.17 in (2014)
Month to date precipitation 0.19 0.28  
Year to date precipitation 0.19 0.28  
Sea Level Pressure  
Sea Level Pressure 29.59 in    
Wind  
Wind Speed 16 mph (WNW)    
Max Wind Speed 31 mph    
Max Gust Speed 35 mph    
T = Trace of Precipitation, MM = Missing Value Source: NWS Daily Summary

Daily Weather History Graph

Daily Weather History Graph

Search for Another Location

Airport or City:

Trip Planner

Search our weather history database for the weather conditions in past years. The results will help you decide how hot, cold, wet, or windy it might be!

Date:

Astronomy

Jan. 29, 2014 Rise Set
Actual Time 7:18 AM MST 4:56 PM MST
Civil Twilight 6:46 AM MST 5:28 PM MST
Nautical Twilight 6:11 AM MST 6:04 PM MST
Astronomical Twilight 5:36 AM MST 6:39 PM MST
Moon 5:57 AM MST (1/29) 3:59 PM MST (1/29)
Length of Visible Light 10h 41m
Length of Day
9h 37m
Waning Crescent, 2% of the Moon is Illuminated
Jan 29
Waning Crescent
Jan 30
New
Feb 6
First Quarter
Feb 14
Full
Feb 22
Last Quarter

Hourly Weather History & Observations

Time (MST) Temp. Windchill Dew Point Humidity Pressure Visibility Wind Dir Wind Speed Gust Speed Precip Events Conditions
12:56 AM 17.1 °F 6.6 °F 3.9 °F 56% 29.83 in - SW 8.1 mph - N/A   Unknown
1:56 AM 17.1 °F 3.6 °F 3.9 °F 56% 29.80 in - SW 12.7 mph - N/A   Unknown
2:56 AM 19.9 °F 6.7 °F 6.1 °F 55% 29.75 in - WSW 13.8 mph - N/A   Unknown
3:56 AM 21.0 °F 9.3 °F 7.0 °F 55% 29.73 in - West 11.5 mph - N/A   Unknown
4:56 AM 24.1 °F 10.6 °F 9.0 °F 53% 29.73 in - West 17.3 mph - N/A   Unknown
5:56 AM 25.0 °F 10.9 °F 10.0 °F 53% 29.72 in - West 19.6 mph - N/A   Unknown
6:56 AM 24.1 °F 11.5 °F 10.0 °F 55% 29.72 in - West 15.0 mph - N/A   Unknown
7:56 AM 25.0 °F 14.2 °F 12.9 °F 60% 29.72 in - West 11.5 mph - N/A   Unknown
8:56 AM 32.0 °F 22.1 °F 16.0 °F 52% 29.69 in - West 13.8 mph - N/A   Unknown
9:56 AM 39.0 °F 29.3 °F 19.0 °F 45% 29.65 in - West 19.6 mph - N/A   Unknown
10:56 AM 42.1 °F 31.9 °F 19.9 °F 41% 29.64 in - West 26.5 mph - N/A   Unknown
11:56 AM 43.0 °F 33.3 °F 21.0 °F 42% 29.60 in - West 25.3 mph - N/A   Unknown
12:56 PM 44.1 °F 35.9 °F 21.9 °F 42% 29.54 in - WNW 19.6 mph - N/A   Unknown
2:56 PM 43.0 °F 36.0 °F 23.0 °F 45% 29.48 in - West 13.8 mph - N/A   Unknown
3:56 PM 41.0 °F 36.4 °F 24.1 °F 51% 29.47 in - West 6.9 mph - N/A   Unknown
4:56 PM 39.9 °F 34.5 °F 24.1 °F 53% 29.44 in - NNW 8.1 mph - N/A   Unknown
5:56 PM 35.1 °F 27.4 °F 32.0 °F 89% 29.44 in - WNW 10.4 mph - N/A   Unknown
6:56 PM 33.1 °F 23.4 °F 30.9 °F 92% 29.39 in - NE 13.8 mph - 0.04 in   Unknown
7:56 PM 32.0 °F 22.1 °F 30.0 °F 92% 29.39 in - NE 13.8 mph - 0.03 in   Unknown
8:56 PM 27.0 °F 13.5 °F 25.0 °F 92% 29.38 in - NE 19.6 mph - 0.04 in   Unknown
9:56 PM 23.0 °F 6.6 °F 21.0 °F 92% 29.42 in - NE 25.3 mph 33.4 mph 0.02 in   Unknown
10:56 PM 19.9 °F 3.9 °F 17.1 °F 89% 29.47 in - NNE 20.7 mph - 0.02 in   Unknown
11:56 PM 18.0 °F 2.2 °F 15.1 °F 88% 29.50 in - NNE 18.4 mph - 0.02 in   Unknown